West Vancouver, British Columbia

4:16 AM PDT on May 20, 2018 (GMT -0700)
West Vancouver

Weather History for CWWA - September, 2012

Change the Weather History Date:

Saturday, September 29, 2012

  Actual Average Record
Temperature  
Mean Temperature 56 °F -  
Max Temperature 61 °F - - ()
Min Temperature 50 °F - - ()
Degree Days  
Heating Degree Days 10    
Growing Degree Days 6 (Base 50)    
Moisture  
Dew Point 50 °F    
Average Humidity 80    
Maximum Humidity 95    
Minimum Humidity 62    
Precipitation  
Precipitation 0.00 in - - ()
Sea Level Pressure  
Sea Level Pressure 30.17 in    
Wind  
Wind Speed 1 mph ()    
Max Wind Speed 4 mph    
Max Gust Speed -    
T = Trace of Precipitation, MM = Missing Value Source: Averaged Metar Reports

Daily Weather History Graph

Daily Weather History Graph

Search for Another Location

Airport or City:

Astronomy

Sep. 29, 2012 Rise Set
Actual Time 7:10 AM PDT 6:54 PM PDT
Civil Twilight 6:38 AM PDT 7:25 PM PDT
Nautical Twilight 6:01 AM PDT 8:03 PM PDT
Astronomical Twilight 5:23 AM PDT 8:40 PM PDT
Moon 6:24 PM PDT (9/29) 6:49 AM PDT (9/29)
Length of Visible Light 12h 47m
Length of Day
11h 43m
Full, 100% of the Moon is Illuminated
Sep 29
Full
Sep 29
Full
Oct 8
Last Quarter
Oct 15
New
Oct 21
First Quarter

Hourly Weather History & Observations

Time (PDT) Temp. Dew Point Humidity Pressure Visibility Wind Dir Wind Speed Gust Speed Precip Events Conditions
12:00 AM 58.8 °F 56.1 °F 91% 30.02 in - NNW 1.2 mph - N/A   Unknown
1:00 AM 58.1 °F 55.8 °F 92% 30.04 in - Calm Calm - N/A   Unknown
2:00 AM 57.4 °F 55.6 °F 94% 30.04 in - WNW 1.2 mph - N/A   Unknown
3:00 AM 56.8 °F 55.2 °F 94% 30.06 in - Calm Calm - N/A   Unknown
4:00 AM 56.1 °F 54.7 °F 95% 30.06 in - Calm Calm - N/A   Unknown
5:00 AM 55 °F 54 °F 93% 30.08 in - NE 1.2 mph - -  
5:00 AM 55.2 °F 53.6 °F 94% 30.08 in - NE 1.2 mph - N/A   Unknown
6:00 AM 54.5 °F 52.7 °F 94% 30.09 in - Calm Calm - N/A   Unknown
7:00 AM 54.1 °F 52.0 °F 92% 30.12 in - Calm Calm - N/A   Unknown
8:00 AM 54.0 °F 51.6 °F 92% 30.14 in - SSW 1.2 mph - N/A   Unknown
9:00 AM 54.9 °F 51.3 °F 88% 30.16 in - East 1.2 mph - N/A   Unknown
10:00 AM 56.5 °F 50.5 °F 80% 30.17 in - ESE 3.5 mph - N/A   Unknown
11:00 AM 58 °F 48 °F 62% 30.20 in - ESE 2.3 mph - -  
11:00 AM 57.9 °F 48.4 °F 71% 30.20 in - ESE 2.3 mph - N/A   Unknown
12:00 PM 58.8 °F 48.9 °F 70% 30.21 in - ESE 2.3 mph - N/A   Unknown
1:00 PM 57.9 °F 48.2 °F 70% 30.22 in - SSW 1.2 mph - N/A   Unknown
2:00 PM 60.4 °F 48.0 °F 64% 30.22 in - SE 2.3 mph - N/A   Unknown
3:00 PM 58.3 °F 49.3 °F 72% 30.23 in - SSW 1.2 mph - N/A   Unknown
4:00 PM 58.8 °F 48.4 °F 68% 30.22 in - ESE 1.2 mph - N/A   Unknown
5:00 PM 57 °F 49 °F 68% 30.23 in - South 1.2 mph - -  
5:00 PM 57.2 °F 49.5 °F 75% 30.23 in - South 1.2 mph - N/A   Unknown
6:00 PM 57.0 °F 48.4 °F 73% 30.22 in - SSW 1.2 mph - N/A   Unknown
7:00 PM 54.1 °F 49.6 °F 85% 30.23 in - NNE 1.2 mph - N/A   Unknown
8:00 PM 51.8 °F 43.9 °F 74% 30.26 in - North 1.2 mph - N/A   Unknown
9:00 PM 50.7 °F 42.4 °F 73% 30.27 in - NNE 1.2 mph - N/A   Unknown
10:00 PM 50.0 °F 41.4 °F 72% 30.28 in - NE 2.3 mph - N/A   Unknown
11:00 PM 50 °F 42 °F 65% 30.28 in - NE 1.2 mph - -  
11:00 PM 50.0 °F 41.9 °F 74% 30.28 in - NE 1.2 mph - N/A   Unknown